KB2SKP Weather Reports


Display with metric or nautical units.
time (UTC)temp
F
wind
direction
speed
MPH
gust
MPH
rain 1hr
in
rain 24hr
in
rain mn
in
humidity
%
barometer
mb
20180719054211 68 292 0.0 0.0 0.00 0.01 0.00 1 1015.2
20180719053212 69 292 0.0 0.0 0.00 0.01 0.00 1 1015.3
20180719052211 69 292 0.0 0.0 0.00 0.01 0.00 1 1015.2
20180719051211 69 292 0.0 0.0 0.00 0.01 0.00 1 1015.2
20180719050211 69 292 0.0 0.0 0.00 0.01 0.00 1 1014.9
20180719045211 69 292 0.0 0.0 0.00 0.01 0.00 1 1014.9
20180719044212 69 292 0.0 0.0 0.00 0.01 0.00 1 1014.9
20180719043212 69 292 0.0 0.0 0.00 0.01 0.00 1 1014.9
20180719042211 70 292 0.0 0.0 0.00 0.01 0.00 1 1014.5
20180719041212 70 292 0.0 0.0 0.00 0.01 0.00 1 1014.5
20180719040215 70 292 0.0 0.0 0.00 0.01 0.00 1 1014.5
20180719035211 70 292 0.0 0.0 0.00 0.01 0.01 1 1014.5
20180719034211 71 292 0.0 0.0 0.00 0.01 0.01 1 1014.5
20180719033211 71 292 0.0 0.0 0.00 0.01 0.01 1 1014.4
20180719032211 71 292 0.0 0.0 0.00 0.01 0.01 1 1014.2
20180719031212 72 292 0.0 0.0 0.00 0.01 0.01 1 1014.2
20180719030211 72 292 0.0 0.0 0.00 0.01 0.01 1 1014.2
20180719025211 72 292 0.0 0.0 0.00 0.01 0.01 1 1014.2
20180719024211 73 292 0.0 0.0 0.00 0.01 0.01 1 1014.2
20180719023211 73 292 0.0 0.0 0.00 0.01 0.01 1 1014.2
20180719022212 73 292 0.0 0.0 0.00 0.01 0.01 1 1014.2
20180719021211 74 292 0.0 0.0 0.00 0.01 0.01 1 1014.2
20180719020211 74 292 0.0 0.0 0.00 0.01 0.01 6 1014.2
20180719015211 75 292 0.0 0.0 0.00 0.01 0.01 12 1014.0
20180719014211 75 292 0.0 0.0 0.00 0.01 0.01 16 1013.8
20180719013211 76 292 0.0 0.0 0.00 0.01 0.01 19 1013.8
20180719012211 77 292 0.0 0.0 0.00 0.01 0.01 24 1013.6
20180719011210 77 292 0.0 0.0 0.00 0.01 0.01 25 1013.7
20180719010211 78 292 0.0 0.0 0.00 0.01 0.01 30 1013.5
20180719005211 78 292 0.0 0.0 0.00 0.01 0.01 35 1013.5
20180719004211 79 292 0.0 0.0 0.00 0.01 0.01 39 1013.5
20180719003211 79 292 0.0 0.0 0.00 0.01 0.01 41 1013.5
20180719002211 80 292 0.0 0.0 0.00 0.01 0.01 41 1013.5
20180719001211 81 292 0.0 0.0 0.00 0.01 0.01 44 1013.5
20180719000211 82 292 0.0 0.0 0.00 0.01 0.01 45 1013.5
20180718235211 82 292 0.0 0.0 0.00 0.01 0.01 46 1013.2
20180718234210 82 292 0.0 1.0 0.00 0.01 0.01 47 1013.2
20180718233210 83 315 0.0 1.0 0.00 0.01 0.01 46 1013.2
20180718232211 83 315 1.0 2.0 0.00 0.01 0.01 46 1013.1
20180718231211 84 219 1.0 2.0 0.00 0.01 0.01 45 1013.2
20180718230211 84 135 1.0 2.0 0.00 0.01 0.01 44 1012.9
20180718225211 85 278 1.0 5.0 0.00 0.01 0.01 43 1012.8
20180718224211 86 307 2.0 2.0 0.00 0.01 0.01 42 1012.8
20180718223211 87 315 2.0 3.0 0.00 0.01 0.01 43 1012.8
20180718222211 87 238 1.0 2.0 0.00 0.01 0.01 43 1012.8
20180718221211 88 306 1.0 5.0 0.00 0.01 0.01 42 1012.5
20180718220211 88 210 2.0 5.0 0.00 0.01 0.01 42 1012.5
20180718215211 88 332 2.0 3.0 0.00 0.01 0.01 42 1012.5
20180718214211 88 302 2.0 6.0 0.00 0.01 0.01 42 1012.5
20180718213211 88 211 1.0 2.0 0.00 0.06 0.01 44 1012.5
20180718212211 88 276 1.0 3.0 0.00 0.10 0.01 45 1012.8
20180718211211 89 297 2.0 5.0 0.00 0.10 0.01 44 1012.8
20180718210211 89 304 1.0 3.0 0.00 0.10 0.01 43 1012.5
20180718205211 89 294 2.0 5.0 0.00 0.15 0.01 39 1012.7
20180718204211 88 285 2.0 6.0 0.00 0.19 0.01 38 1012.5
20180718203211 89 159 3.0 5.0 0.00 0.31 0.01 39 1012.8
20180718202211 89 313 3.0 6.0 0.00 0.31 0.01 41 1012.8
20180718201211 88 148 2.0 5.0 0.00 0.31 0.01 44 1012.8
20180718200211 87 317 2.0 3.0 0.00 0.31 0.01 44 1012.8
20180718195211 86 330 2.0 2.0 0.00 0.31 0.01 44 1012.9
20180718194210 87 115 2.0 2.0 0.00 0.31 0.01 42 1012.8
20180718193210 88 149 2.0 5.0 0.00 0.31 0.01 43 1012.8
20180718192211 89 307 2.0 6.0 0.00 0.31 0.01 44 1013.0
20180718191211 89 41 3.0 5.0 0.00 0.31 0.01 43 1013.2
20180718190210 88 208 2.0 3.0 0.00 0.31 0.01 46 1013.2
20180718185211 88 344 3.0 6.0 0.00 0.31 0.01 43 1013.2
20180718184210 88 47 2.0 5.0 0.00 0.31 0.01 46 1013.2
20180718183211 88 280 2.0 5.0 0.00 0.31 0.01 46 1013.2
20180718182210 87 270 2.0 6.0 0.00 0.31 0.01 47 1013.2
20180718181211 87 320 3.0 6.0 0.00 0.31 0.01 47 1013.2
20180718180211 86 270 2.0 5.0 0.00 0.31 0.01 47 1013.2
20180718175211 87 339 3.0 5.0 0.00 0.31 0.01 47 1013.2
20180718174210 86 154 3.0 5.0 0.00 0.31 0.01 47 1013.5
20180718173211 86 180 2.0 5.0 0.00 0.31 0.01 47 1013.5
20180718172210 86 309 3.0 5.0 0.00 0.31 0.01 47 1013.5
20180718153210 82 298 2.0 6.0 0.00 0.31 0.01 22 1013.5
20180718152210 82 276 3.0 5.0 0.00 0.31 0.01 8 1013.5
20180718151210 81 235 2.0 5.0 0.00 0.31 0.01 1 1013.5
20180718150210 81 312 3.0 5.0 0.00 0.31 0.01 16 1013.5
20180718145210 80 341 4.0 5.0 0.00 0.31 0.01 1 1013.5
20180718144210 80 282 2.0 3.0 0.00 0.31 0.01 1 1013.5
20180718143210 79 299 2.0 3.0 0.00 0.31 0.01 1 1013.5
20180718142210 79 309 2.0 6.0 0.00 0.31 0.01 1 1013.6
20180718141210 78 315 3.0 5.0 0.00 0.31 0.01 1 1013.5
20180718140210 78 274 2.0 3.0 0.00 0.31 0.01 1 1013.8
20180718135210 77 315 3.0 5.0 0.00 0.31 0.01 1 1013.8
20180718134210 76 260 1.0 3.0 0.00 0.31 0.01 1 1013.8
20180718133210 76 315 1.0 6.0 0.00 0.31 0.01 1 1013.8
20180718132210 75 315 2.0 2.0 0.00 0.31 0.01 1 1013.8
20180718131210 74 355 2.0 5.0 0.00 0.31 0.01 1 1013.8
20180718130210 74 22 2.0 5.0 0.00 0.31 0.01 1 1013.8
20180718125210 73 292 3.0 3.0 0.00 0.31 0.01 1 1013.5
20180718124210 72 317 1.0 6.0 0.00 0.31 0.01 1 1013.5
20180718123210 71 329 2.0 3.0 0.00 0.31 0.01 1 1013.5
20180718122210 70 307 3.0 3.0 0.00 0.31 0.01 1 1013.2
20180718121210 70 328 2.0 3.0 0.00 0.31 0.01 1 1012.8
20180718120210 70 315 1.0 2.0 0.00 0.31 0.01 1 1012.8
20180718115210 70 344 2.0 2.0 0.00 0.31 0.01 1 1012.8
20180718114210 70 289 2.0 2.0 0.00 0.31 0.01 1 1012.5
20180718113210 69 293 1.0 5.0 0.00 0.31 0.01 1 1012.5
20180718112210 69 13 2.0 5.0 0.00 0.31 0.01 1 1012.5
20180718111210 69 58 1.0 5.0 0.00 0.31 0.01 1 1012.1
20180718110210 69 270 1.0 2.0 0.00 0.31 0.01 1 1012.1
20180718105210 69 294 3.0 3.0 0.00 0.31 0.01 1 1012.1
20180718104210 69 203 2.0 3.0 0.00 0.31 0.01 1 1011.8
20180718103210 69 308 1.0 2.0 0.00 0.31 0.01 1 1011.5
20180718102210 69 324 2.0 3.0 0.00 0.31 0.01 1 1011.5
20180718101210 69 295 1.0 2.0 0.00 0.31 0.01 1 1011.5
20180718100210 69 292 1.0 3.0 0.01 0.31 0.01 1 1011.5
20180718095210 70 304 2.0 2.0 0.01 0.31 0.01 1 1011.1
20180718094209 70 73 2.0 5.0 0.01 0.31 0.01 1 1010.8
20180718092210 70 166 3.0 5.0 0.01 0.31 0.01 1 1010.8
20180718091209 71 97 2.0 5.0 0.01 0.31 0.01 1 1010.8
20180718090210 71 44 1.0 5.0 0.00 0.31 0.00 1 1010.8
20180718085209 71 325 2.0 5.0 0.00 0.31 0.00 1 1010.8
20180718084210 71 90 1.0 3.0 0.00 0.31 0.00 1 1010.8
20180718083210 72 270 1.0 3.0 0.00 0.31 0.00 1 1010.4
20180718082209 72 334 2.0 3.0 0.00 0.31 0.00 1 1010.4
20180718081211 72 313 2.0 2.0 0.00 0.31 0.00 1 1010.4
20180718080209 72 248 1.0 2.0 0.00 0.31 0.00 1 1010.8
20180718075210 72 328 1.0 2.0 0.00 0.31 0.00 1 1010.8
20180718074209 72 292 2.0 2.0 0.00 0.31 0.00 1 1010.8
20180718073210 73 297 1.0 2.0 0.00 0.31 0.00 1 1010.8
20180718072210 73 268 1.0 1.0 0.00 0.31 0.00 1 1010.8
20180718071210 73 298 1.0 1.0 0.00 0.31 0.00 1 1010.8
20180718070216 73 288 1.0 1.0 0.00 0.31 0.00 1 1010.4
20180718065209 74 294 0.0 2.0 0.00 0.31 0.00 1 1010.2
20180718064210 74 330 1.0 2.0 0.00 0.31 0.00 1 1010.1
20180718063210 74 315 1.0 2.0 0.00 0.31 0.00 1 1010.1
20180718062209 74 309 1.0 2.0 0.00 0.31 0.00 1 1010.3
20180718061210 74 11 1.0 2.0 0.00 0.31 0.00 1 1010.4
20180718060209 75 317 1.0 2.0 0.00 0.31 0.00 1 1010.1
20180718055210 75 338 1.0 2.0 0.00 0.31 0.00 1 1010.1